sat.trackr.live / text

‹ back to catalog

STARLINK-5949

NORAD 56019 · 2023-042AK

PAYLOAD ACTIVE UNKNOWN

§ Identity

Operator
Country
US
Launch date
2023-03-24
Launch site
AFETR
Launch vehicle
Mass (kg)
RCS (m²)

Purposes: comms

External: N2YO · Heavens-Above · Gunter

§ Orbital elements

Epoch: 2026-05-24T20:30:54.218016Z

Period
94.27 min
Inclination
43.0053°
Eccentricity
0.0001966
Mean motion
15.27575825 rev/d
Perigee alt
481.7 km
Apogee alt
484.4 km
Semi-major
6,861.2 km
B*
2.6488e-5
RAAN
335.1159°
Arg perigee
276.4516°
Mean anomaly
83.6112°
Rev number
17,468

§ Raw data

STARLINK-59491 56019U 23042AK  26144.85479419  .00000466  00000+0  26488-4 0  99932 56019  43.0053 335.1159 0001966 276.4516  83.6112 15.27575825174682

JSON: /api/v1/satellites/56019 · /tle

For live sub-satellite position, see the globe view (requires WebGL).

§ Visibility from observer

Set your observer location to see the next 7 days of passes ≥ 10°. The values pass through the URL so the page stays shareable.

No JS? Fill the form by hand. The geolocation button needs JavaScript.